Terminal Aerodrome Forecast
Issued by NWS Topeka, KS

Home | Current Version | Previous Version | Graphics & Text | Print | Product List | Glossary On
Versions: 1 2 3 4 5 6 7 8 9 10 11 12 13 14
000
FTUS43 KTOP 210700 AAA
TAFTOP
TAF AMD
KTOP 210759Z 2108/2206 18013G20KT P6SM SCT150 SCT300
     FM211400 20014G21KT P6SM FEW060 SCT300
     FM220030 18010KT P6SM SCT300=

USA.gov is the U.S. government's official web portal to all federal, state and local government web resources and services.